This is the latest recevied weather packets stored in our database for station/object N9OJR. If no packets are shown the sender has not sent any weather packets the latest 10 day(s).
| Time | Temp. | Humidity | Pressure | Rain* | Wind** | Luminosity | Snow |
|---|---|---|---|---|---|---|---|
| 1778093728 | 13.89° C | 56% | 1008.5 hPa | 0 mm | - | 274 W/m² | - |
| 1778093424 | 13.89° C | 58% | 1008.5 hPa | 0 mm | - | 321 W/m² | - |
| 1778093122 | 13.89° C | 57% | 1008.3 hPa | 0 mm | - | 510 W/m² | - |
| 1778092819 | 13.89° C | 55% | 1008.1 hPa | 0 mm | - | 447 W/m² | - |
| 1778092514 | 13.89° C | 57% | 1008.2 hPa | 0 mm | - | 383 W/m² | - |
| 1778092211 | 13.89° C | 59% | 1008.2 hPa | 0 mm | - | 320 W/m² | - |
| 1778091909 | 13.89° C | 55% | 1008.4 hPa | 0 mm | - | 984 W/m² | - |
| 1778091606 | 13.89° C | 61% | 1008.3 hPa | 0 mm | - | 346 W/m² | - |
| 1778091303 | 13.89° C | 61% | 1008.1 hPa | 0 mm | - | 961 W/m² | - |
| 1778091000 | 13.89° C | 57% | 1008.6 hPa | 0 mm | - | 346 W/m² | - |
| 1778090697 | 15° C | 58% | 1008.2 hPa | 0 mm | - | 244 W/m² | - |
| 1778090393 | 13.89° C | 57% | 1008 hPa | 0 mm | - | 742 W/m² | - |
| 1778090089 | 13.33° C | 57% | 1008.2 hPa | 0 mm | - | 299 W/m² | - |
| 1778089781 | 13.33° C | 61% | 1007.9 hPa | 0 mm | - | 384 W/m² | - |
| 1778089479 | 12.78° C | 62% | 1008.2 hPa | 0 mm | - | 305 W/m² | - |
| 1778089175 | 12.78° C | 60% | 1008.2 hPa | 0 mm | - | 250 W/m² | - |
| 1778088873 | 12.78° C | 66% | 1008.2 hPa | 0 mm | - | 339 W/m² | - |
| 1778088569 | 12.22° C | 67% | 1008 hPa | 0 mm | - | 170 W/m² | - |
| 1778088267 | 12.78° C | 64% | 1008.2 hPa | 0 mm | - | 201 W/m² | - |
| 1778087963 | 13.89° C | 63% | 1008.1 hPa | 0 mm | - | 706 W/m² | - |
| 1778087660 | 14.44° C | 62% | 1008.2 hPa | 0 mm | - | 794 W/m² | - |
| 1778087358 | 13.89° C | 66% | 1008.2 hPa | 0 mm | - | 331 W/m² | - |
| 1778087054 | 12.78° C | 64% | 1008.2 hPa | 0 mm | - | 564 W/m² | - |
| 1778086748 | 12.78° C | 66% | 1008.1 hPa | 0 mm | - | 745 W/m² | - |
| 1778086445 | 13.33° C | 63% | 1008.2 hPa | 0 mm | - | 251 W/m² | - |
* Rain latest hour (hover to see other rain measurements)
** Current wind speed in m/s (hover to see current wind gust speed)